Time,TemperatureF,DewpointF,PressureIn,WindDirection,WindDirectionDegrees,WindSpeedMPH,WindSpeedGustMPH,Humidity,HourlyPrecipIn,Conditions,Clouds,dailyrainin,SolarRadiationWatts/m^2,SoftwareType,DateUTC
2013-08-26 00:03:00,82.0,63.0,-100.00,ESE,106,8.0,11.0,52,0.00,,,0.00,0.000000,,2013-08-26 05:03:00,
2013-08-26 00:44:00,80.0,64.0,-100.00,East,99,5.0,9.0,58,0.00,,,0.00,0.000000,,2013-08-26 05:44:00,
2013-08-26 00:52:00,80.0,64.0,-100.00,East,99,5.0,9.0,58,0.00,,,0.00,0.000000,,2013-08-26 05:52:00,
2013-08-26 01:02:00,80.0,64.0,-100.00,East,99,5.0,9.0,58,0.00,,,0.00,0.000000,,2013-08-26 06:02:00,
2013-08-26 01:42:00,77.0,64.0,-100.00,ENE,73,6.0,7.0,64,0.00,,,0.00,0.000000,,2013-08-26 06:42:00,
2013-08-26 01:52:00,77.0,64.0,-100.00,ENE,73,6.0,7.0,64,0.00,,,0.00,0.000000,,2013-08-26 06:52:00,
2013-08-26 02:02:00,77.0,64.0,-100.00,ENE,73,6.0,7.0,64,0.00,,,0.00,0.000000,,2013-08-26 07:02:00,
2013-08-26 02:42:00,76.0,65.0,-100.00,ENE,66,6.0,7.0,68,0.00,,,0.00,0.000000,,2013-08-26 07:42:00,
2013-08-26 02:52:00,76.0,65.0,-100.00,ENE,66,6.0,7.0,68,0.00,,,0.00,0.000000,,2013-08-26 07:52:00,
2013-08-26 03:02:00,76.0,65.0,-100.00,ENE,66,6.0,7.0,68,0.00,,,0.00,0.000000,,2013-08-26 08:02:00,
2013-08-26 03:42:00,75.0,65.0,-100.00,East,85,5.0,7.0,72,0.00,,,0.00,0.000000,,2013-08-26 08:42:00,
2013-08-26 03:52:00,75.0,65.0,-100.00,East,85,5.0,7.0,72,0.00,,,0.00,0.000000,,2013-08-26 08:52:00,
2013-08-26 04:02:00,75.0,65.0,-100.00,East,85,5.0,7.0,72,0.00,,,0.00,0.000000,,2013-08-26 09:02:00,
2013-08-26 04:43:00,74.0,64.0,-100.00,East,83,7.0,9.0,72,0.00,,,0.00,0.000000,,2013-08-26 09:43:00,
2013-08-26 04:54:00,74.0,64.0,-100.00,East,83,7.0,9.0,72,0.00,,,0.00,0.000000,,2013-08-26 09:54:00,
2013-08-26 05:03:00,74.0,64.0,-100.00,East,83,7.0,9.0,72,0.00,,,0.00,0.000000,,2013-08-26 10:03:00,
2013-08-26 05:42:00,73.0,64.0,-100.00,East,88,5.0,9.0,74,0.00,,,0.00,0.000000,,2013-08-26 10:42:00,
2013-08-26 05:52:00,73.0,64.0,-100.00,East,88,5.0,9.0,74,0.00,,,0.00,0.000000,,2013-08-26 10:52:00,
2013-08-26 06:02:00,73.0,64.0,-100.00,East,88,5.0,9.0,74,0.00,,,0.00,0.000000,,2013-08-26 11:02:00,
2013-08-26 06:42:00,72.0,65.0,-100.00,ENE,76,5.0,7.0,78,0.00,,,0.00,0.000000,,2013-08-26 11:42:00,
2013-08-26 06:52:00,72.0,65.0,-100.00,ENE,76,5.0,7.0,78,0.00,,,0.00,0.000000,,2013-08-26 11:52:00,
2013-08-26 07:01:00,72.0,65.0,-100.00,ENE,76,5.0,7.0,78,0.00,,,0.00,0.000000,,2013-08-26 12:01:00,
2013-08-26 07:42:00,71.0,65.0,-100.00,ENE,70,6.0,8.0,80,0.00,,,0.00,0.000000,,2013-08-26 12:42:00,
2013-08-26 07:52:00,71.0,65.0,-100.00,ENE,70,6.0,8.0,80,0.00,,,0.00,0.000000,,2013-08-26 12:52:00,
2013-08-26 08:02:00,71.0,65.0,-100.00,ENE,70,6.0,8.0,80,0.00,,,0.00,0.000000,,2013-08-26 13:02:00,
2013-08-26 08:42:00,74.0,67.0,-100.00,East,80,6.0,9.0,79,0.00,,,0.00,56.000000,,2013-08-26 13:42:00,
2013-08-26 08:52:00,74.0,67.0,-100.00,East,80,6.0,9.0,79,0.00,,,0.00,56.000000,,2013-08-26 13:52:00,
2013-08-26 09:02:00,74.0,67.0,-100.00,East,80,6.0,9.0,79,0.00,,,0.00,56.000000,,2013-08-26 14:02:00,
2013-08-26 09:42:00,77.0,68.0,-100.00,East,98,8.0,11.0,73,0.00,,,0.00,260.000000,,2013-08-26 14:42:00,
2013-08-26 09:52:00,77.0,68.0,-100.00,East,98,8.0,11.0,73,0.00,,,0.00,260.000000,,2013-08-26 14:52:00,
2013-08-26 10:01:00,77.0,68.0,-100.00,East,98,8.0,11.0,73,0.00,,,0.00,260.000000,,2013-08-26 15:01:00,
2013-08-26 10:07:00,79.0,68.0,-100.00,ESE,105,7.0,14.0,70,0.00,,,0.00,421.000000,,2013-08-26 15:07:00,
2013-08-26 10:59:00,79.0,68.0,-100.00,ESE,105,7.0,14.0,70,0.00,,,0.00,421.000000,,2013-08-26 15:59:00,
2013-08-26 11:48:00,82.0,68.0,-100.00,ESE,111,8.0,15.0,62,0.00,,,0.00,593.000000,,2013-08-26 16:48:00,
2013-08-26 11:59:00,82.0,68.0,-100.00,ESE,111,8.0,15.0,62,0.00,,,0.00,593.000000,,2013-08-26 16:59:00,
2013-08-26 12:06:00,82.0,68.0,-100.00,ESE,111,8.0,15.0,62,0.00,,,0.00,593.000000,,2013-08-26 17:06:00,
2013-08-26 12:43:00,84.0,67.0,-100.00,East,94,11.0,17.0,57,0.00,,,0.00,752.000000,,2013-08-26 17:43:00,
2013-08-26 12:53:00,84.0,67.0,-100.00,East,94,11.0,17.0,57,0.00,,,0.00,752.000000,,2013-08-26 17:53:00,
2013-08-26 13:01:00,84.0,67.0,-100.00,East,94,11.0,17.0,57,0.00,,,0.00,752.000000,,2013-08-26 18:01:00,
2013-08-26 13:42:00,86.0,66.0,-100.00,East,96,13.0,20.0,52,0.00,,,0.00,724.000000,,2013-08-26 18:42:00,
2013-08-26 13:52:00,86.0,66.0,-100.00,East,96,13.0,20.0,52,0.00,,,0.00,724.000000,,2013-08-26 18:52:00,
2013-08-26 14:01:00,86.0,66.0,-100.00,East,96,13.0,20.0,52,0.00,,,0.00,724.000000,,2013-08-26 19:01:00,
2013-08-26 14:42:00,87.0,64.0,-100.00,East,79,11.0,17.0,47,0.00,,,0.00,738.000000,,2013-08-26 19:42:00,
2013-08-26 14:52:00,87.0,64.0,-100.00,East,79,11.0,17.0,47,0.00,,,0.00,738.000000,,2013-08-26 19:52:00,
2013-08-26 15:02:00,87.0,64.0,-100.00,East,79,11.0,17.0,47,0.00,,,0.00,738.000000,,2013-08-26 20:02:00,
2013-08-26 15:43:00,89.0,64.0,-100.00,ESE,109,12.0,19.0,44,0.00,,,0.00,825.000000,,2013-08-26 20:43:00,
2013-08-26 15:52:00,89.0,64.0,-100.00,ESE,109,12.0,19.0,44,0.00,,,0.00,825.000000,,2013-08-26 20:52:00,
2013-08-26 16:01:00,89.0,64.0,-100.00,ESE,109,12.0,19.0,44,0.00,,,0.00,825.000000,,2013-08-26 21:01:00,
2013-08-26 16:07:00,89.0,63.0,-100.00,East,81,12.0,22.0,42,0.00,,,0.00,766.000000,,2013-08-26 21:07:00,
2013-08-26 16:44:00,89.0,63.0,-100.00,East,81,12.0,22.0,42,0.00,,,0.00,766.000000,,2013-08-26 21:44:00,
2013-08-26 16:55:00,89.0,63.0,-100.00,East,81,12.0,22.0,42,0.00,,,0.00,766.000000,,2013-08-26 21:55:00,
2013-08-26 17:42:00,89.0,62.0,-100.00,ENE,75,12.0,21.0,41,0.00,,,0.00,515.000000,,2013-08-26 22:42:00,
2013-08-26 17:53:00,89.0,62.0,-100.00,ENE,75,12.0,21.0,41,0.00,,,0.00,515.000000,,2013-08-26 22:53:00,
2013-08-26 18:03:00,89.0,62.0,-100.00,ENE,75,12.0,21.0,41,0.00,,,0.00,515.000000,,2013-08-26 23:03:00,
2013-08-26 18:42:00,90.0,64.0,-100.00,East,98,12.0,19.0,42,0.00,,,0.00,257.000000,,2013-08-26 23:42:00,
2013-08-26 18:52:00,90.0,64.0,-100.00,East,98,12.0,19.0,42,0.00,,,0.00,257.000000,,2013-08-26 23:52:00,
2013-08-26 19:01:00,90.0,64.0,-100.00,East,98,12.0,19.0,42,0.00,,,0.00,257.000000,,2013-08-27 00:01:00,
2013-08-26 19:42:00,88.0,63.0,-100.00,East,95,10.0,17.0,43,0.00,,,0.00,216.000000,,2013-08-27 00:42:00,
2013-08-26 19:52:00,88.0,63.0,-100.00,East,95,10.0,17.0,43,0.00,,,0.00,216.000000,,2013-08-27 00:52:00,
2013-08-26 20:02:00,88.0,63.0,-100.00,East,95,10.0,17.0,43,0.00,,,0.00,216.000000,,2013-08-27 01:02:00,
2013-08-26 20:42:00,85.0,60.0,-100.00,East,95,6.0,16.0,43,0.00,,,0.00,66.000000,,2013-08-27 01:42:00,
2013-08-26 20:52:00,85.0,60.0,-100.00,East,95,6.0,16.0,43,0.00,,,0.00,66.000000,,2013-08-27 01:52:00,
2013-08-26 21:02:00,85.0,60.0,-100.00,East,95,6.0,16.0,43,0.00,,,0.00,66.000000,,2013-08-27 02:02:00,
2013-08-26 21:43:00,83.0,62.0,-100.00,East,92,5.0,11.0,49,0.00,,,0.00,1.000000,,2013-08-27 02:43:00,
2013-08-26 21:52:00,83.0,62.0,-100.00,East,92,5.0,11.0,49,0.00,,,0.00,1.000000,,2013-08-27 02:52:00,
2013-08-26 22:02:00,83.0,62.0,-100.00,East,92,5.0,11.0,49,0.00,,,0.00,1.000000,,2013-08-27 03:02:00,
2013-08-26 22:07:00,80.0,62.0,-100.00,East,85,6.0,7.0,55,0.00,,,0.00,0.000000,,2013-08-27 03:07:00,
2013-08-26 22:45:00,80.0,62.0,-100.00,East,85,6.0,7.0,55,0.00,,,0.00,0.000000,,2013-08-27 03:45:00,
2013-08-26 22:58:00,80.0,62.0,-100.00,East,85,6.0,7.0,55,0.00,,,0.00,0.000000,,2013-08-27 03:58:00,
2013-08-26 23:47:00,79.0,63.0,-100.00,East,92,8.0,11.0,58,0.00,,,0.00,0.000000,,2013-08-27 04:47:00,
2013-08-26 23:54:00,79.0,63.0,-100.00,East,92,8.0,11.0,58,0.00,,,0.00,0.000000,,2013-08-27 04:54:00,